Location: Oshawa
(43.9000°N, 78.8670°W)
Time: 22:35:15
(UTC-04:00)

Amateur Radio Satellites - All Passes

Search period start: 23 August 2016 22:05
Search period end: 24 August 2016 22:05
Location: Oshawa, 43.9000°N, 78.8670°W

Satellite Date Start Highest point End Downlink Frequencies (MHz)
Time Altitude Azimuth
HO-68 23 Aug 22:08:06 22:12:38 18° 271° (W) 22:17:13 435.675
AIST 1 23 Aug 22:09:36 22:13:43 39° 268° (W) 22:17:47
DELFI C3 23 Aug 22:10:13 22:14:08 87° 79° (ENE) 22:18:06 145.870
GONETS M04 23 Aug 22:13:34 22:19:05 18° 57° (ENE) 22:24:34
PRISM 23 Aug 22:15:23 22:19:35 86° 285° (WNW) 22:23:46 437.425
ANTELSAT 23 Aug 22:20:58 22:22:04 11° 88° (E) 22:23:10 437.575/2403.000
AUBIESAT-1 23 Aug 22:31:27 22:35:42 38° 64° (ENE) 22:40:01 437.475
M-CUBED/EXP-1 PRIME 23 Aug 22:32:50 22:37:17 47° 66° (ENE) 22:41:50 437.505
Cosmos 2499 23 Aug 22:35:39 22:38:57 13° 58° (ENE) 22:42:12 435.465 / 435.565
CUBEBUG 1 23 Aug 22:39:05 22:40:31 11° 59° (ENE) 22:41:56 437.445
PCSat 23 Aug 22:42:11 22:47:37 79° 242° (WSW) 22:53:01 145.827
ESTCUBE 1 23 Aug 22:44:19 22:47:30 19° 64° (ENE) 22:50:42 437.505/2401.250
TIGRISAT 23 Aug 22:51:19 22:54:44 22° 94° (E) 22:58:05 435.000
DX 1 23 Aug 22:58:22 22:59:16 11° 58° (ENE) 23:00:11 434.975-435.025
AIST 2 23 Aug 22:59:14 23:03:25 73° 238° (WSW) 23:07:34 435.215
Oscar 11 23 Aug 23:09:13 23:10:12 11° 272° (W) 23:11:11 145.826/435.025
FUNcube-1 23 Aug 23:09:41 23:11:24 12° 271° (W) 23:13:06 145.935
AISAT 23 Aug 23:11:13 23:14:35 21° 64° (ENE) 23:17:58 437.250
HUMSAT D 23 Aug 23:15:55 23:19:47 36° 263° (W) 23:23:37 437.325/437.525
SPROUT 23 Aug 23:17:41 23:19:16 12° 60° (ENE) 23:20:51 437.525
UNISAT 6 23 Aug 23:17:52 23:22:03 46° 99° (E) 23:26:09 437.425
JAS-2 23 Aug 23:40:57 23:41:59 10° 86° (E) 23:43:02 435.910
UKube-1 23 Aug 23:44:33 23:48:02 24° 66° (ENE) 23:51:31 .
QB50P2 23 Aug 23:50:30 23:53:12 16° 92° (E) 23:55:52 145.880/145.840
POLYITAN 1 23 Aug 23:53:01 23:55:45 16° 92° (E) 23:58:26 437.675
DUCHIFAT 1 23 Aug 23:54:38 23:57:04 15° 91° (E) 23:59:28 145.980
ANTELSAT 23 Aug 23:54:59 23:59:18 70° 286° (WNW) 00:03:33 437.575/2403.000
VELOX 1 23 Aug 23:57:52 00:02:13 59° 73° (ENE) 00:06:36 145.980
SO-50 24 Aug 00:00:56 00:02:36 12° 107° (ESE) 00:04:15 436.795
O/OREOS (USA 219) 24 Aug 00:03:59 00:07:40 23° 55° (NE) 00:11:19 437.305
NANOSAT C BR1 24 Aug 00:05:33 00:08:46 21° 93° (E) 00:11:58 145.865
AUBIESAT-1 24 Aug 00:06:23 00:10:12 26° 261° (W) 00:14:05 437.475
M-CUBED/EXP-1 PRIME 24 Aug 00:08:28 00:11:59 21° 263° (W) 00:15:34 437.505
GONETS M04 24 Aug 00:08:41 00:17:36 77° 80° (E) 00:26:27
CUBEBUG 1 24 Aug 00:11:44 00:16:07 84° 257° (WSW) 00:20:33 437.445
50 SAT 24 Aug 00:16:18 00:19:53 84° 259° (W) 00:23:29 437.505
ESTCUBE 1 24 Aug 00:19:41 00:23:59 46° 261° (W) 00:28:20 437.505/2401.250
Cosmos 2499 24 Aug 00:26:20 00:33:28 76° 80° (E) 00:40:33 435.465 / 435.565
TIGRISAT 24 Aug 00:27:36 00:31:30 34° 291° (WNW) 00:35:20 435.000
PCSat 24 Aug 00:28:55 00:30:05 11° 259° (W) 00:31:14 145.827
DX 1 24 Aug 00:30:23 00:34:45 90° 260° (W) 00:39:10 434.975-435.025
QB50P1 24 Aug 00:46:12 00:50:25 62° 101° (E) 00:54:35 145.935-145.965
AISAT 24 Aug 00:46:36 00:50:47 41° 261° (W) 00:55:02 437.250
SPROUT 24 Aug 00:50:17 00:54:35 77° 257° (WSW) 00:58:56 437.525
UNISAT 6 24 Aug 00:55:30 00:58:25 18° 297° (WNW) 01:01:19 437.425
POPSAT HIP 1 24 Aug 00:55:46 01:00:01 78° 103° (ESE) 01:04:13 437.405
BUGSAT 1 24 Aug 01:07:16 01:11:13 39° 98° (E) 01:15:04 437.445
UKube-1 24 Aug 01:19:59 01:23:54 34° 263° (W) 01:27:52 .
JAS-2 24 Aug 01:21:26 01:27:56 64° 102° (ESE) 01:35:14 435.910
CUSAT 1 24 Aug 01:23:21 01:25:43 25° 290° (WNW) 01:28:28 437.405
QB50P2 24 Aug 01:25:11 01:29:15 46° 288° (WNW) 01:33:16 145.880/145.840
TISAT 1 24 Aug 01:25:35 01:29:46 58° 73° (ENE) 01:33:58 437.305
POLYITAN 1 24 Aug 01:27:44 01:31:47 45° 289° (WNW) 01:35:47 437.675
DUCHIFAT 1 24 Aug 01:28:58 01:33:03 50° 288° (WNW) 01:37:06 145.980
ITUPSAT 1 24 Aug 01:30:32 01:33:21 16° 60° (ENE) 01:36:10 437.325
VELOX 1 24 Aug 01:36:40 01:39:03 14° 270° (W) 01:41:27 145.980
SO-50 24 Aug 01:37:29 01:42:22 88° 119° (ESE) 01:47:12 436.795
DANDE 24 Aug 01:38:13 01:40:48 67° 281° (W) 01:43:27 436.750
NANOSAT C BR1 24 Aug 01:40:45 01:44:36 35° 290° (WNW) 01:48:25 145.865
O/OREOS (USA 219) 24 Aug 01:42:55 01:47:15 43° 253° (WSW) 01:51:35 437.305
RS-15 24 Aug 01:46:52 01:57:10 40° 107° (ESE) 02:07:54 29.354- 29.394
Oscar 19 24 Aug 01:53:36 01:57:50 25° 94° (E) 02:02:03 437.125/150
SWISSCUBE 24 Aug 02:04:15 02:08:33 35° 68° (ENE) 02:12:51 437.505
GONETS M04 24 Aug 02:06:51 02:13:26 24° 281° (W) 02:20:03
Cosmos 2499 24 Aug 02:21:05 02:25:41 19° 280° (W) 02:30:16 435.465 / 435.565
BEESAT 24 Aug 02:21:36 02:26:08 46° 70° (ENE) 02:30:42 436.000
QB50P1 24 Aug 02:23:33 02:25:41 14° 298° (WNW) 02:27:48 145.935-145.965
Gurwin Techsat 1B 24 Aug 02:28:57 02:33:16 25° 93° (E) 02:37:33 435.225
POPSAT HIP 1 24 Aug 02:33:53 02:35:10 11° 300° (WNW) 02:36:27 437.405
BUGSAT 1 24 Aug 02:43:18 02:46:18 19° 295° (WNW) 02:49:16 437.445
ITAMSAT 1 24 Aug 02:59:28 03:02:02 14° 89° (E) 03:04:37 435.822/435.867
TISAT 1 24 Aug 03:03:43 03:05:47 13° 270° (W) 03:07:50 437.305
ITUPSAT 1 24 Aug 03:05:55 03:10:39 67° 258° (WSW) 03:15:25 437.325
JAS-2 24 Aug 03:07:23 03:12:37 27° 297° (WNW) 03:18:20 435.910
MOZHAYETS 4 24 Aug 03:14:24 03:18:00 23° 66° (ENE) 03:21:37
AO-7 24 Aug 03:18:24 03:22:28 14° 87° (E) 03:26:32 29.400- 29.500
SO-50 24 Aug 03:20:06 03:23:29 18° 324° (NW) 03:26:49 436.795
Oscar 19 24 Aug 03:32:24 03:37:20 44° 291° (WNW) 03:42:15 437.125/150
KKS-1 24 Aug 03:39:23 03:43:24 33° 68° (ENE) 03:47:27 437.445
PHONESAT 2.4 24 Aug 03:40:12 03:40:50 10° 151° (SSE) 03:41:29 2401.200-2431.200
SWISSCUBE 24 Aug 03:42:22 03:46:23 27° 265° (W) 03:50:24 437.505
RS-15 24 Aug 03:57:23 04:08:57 68° 311° (NW) 04:21:11 29.354- 29.394
BEESAT 24 Aug 04:00:39 04:04:09 20° 267° (W) 04:07:40 436.000
Gurwin Techsat 1B 24 Aug 04:08:21 04:13:25 46° 291° (WNW) 04:18:27 435.225
CUBESAT XI-V 24 Aug 04:23:37 04:26:30 17° 62° (ENE) 04:29:24 437.345
STARS 24 Aug 04:26:43 04:31:01 51° 72° (ENE) 04:35:21 437.465
ITAMSAT 1 24 Aug 04:36:54 04:42:05 77° 286° (WNW) 04:47:15 435.822/435.867
MOZHAYETS 4 24 Aug 04:50:42 04:54:57 38° 263° (W) 04:59:14
AO-7 24 Aug 05:08:17 05:16:38 74° 106° (ESE) 05:24:55 29.400- 29.500
PHONESAT 2.4 24 Aug 05:13:57 05:16:39 31° 167° (SSE) 05:19:21 2401.200-2431.200
KKS-1 24 Aug 05:16:18 05:20:00 25° 265° (W) 05:23:44 437.445
AO-85 24 Aug 05:38:37 05:40:42 12° 107° (ESE) 05:42:45 145.980
Cosmos 2491 24 Aug 05:43:29 05:51:58 49° 73° (ENE) 06:00:26 435.465 / 435.565
CUBESAT XI-V 24 Aug 05:58:54 06:03:25 58° 260° (W) 06:07:59 437.345
STARS 24 Aug 06:04:53 06:07:41 16° 269° (W) 06:10:28 437.465
RS-15 24 Aug 06:14:04 06:24:19 31° 341° (NNW) 06:34:55 29.354- 29.394
ITAMSAT 1 24 Aug 06:19:00 06:20:41 12° 305° (NW) 06:22:22 435.822/435.867
HORYU 2 24 Aug 06:27:27 06:31:53 82° 104° (ESE) 06:36:18 437.375
Cubesat XI-IV 24 Aug 06:34:17 06:38:02 19° 91° (E) 06:41:45 437.490
GOMX 1 24 Aug 06:42:34 06:47:03 25° 92° (E) 06:51:23 467.674
BRITE-PL 24 Aug 06:44:22 06:49:57 55° 99° (E) 06:55:30 437.365/2234.400
CUTE-I 24 Aug 06:47:04 06:51:25 25° 94° (E) 06:55:45 437.470
PHONESAT 2.4 24 Aug 06:49:53 06:52:45 42° 183° (S) 06:55:37 2401.200-2431.200
NOAA 18 24 Aug 06:51:58 06:56:26 25° 94° (E) 07:00:51 137.9125
YUBILEINY 24 Aug 07:00:27 07:08:58 56° 90° (E) 07:17:31 435.215
NOAA 15 24 Aug 07:01:36 07:06:39 43° 99° (E) 07:11:41 137.62
AO-7 24 Aug 07:01:55 07:08:43 29° 306° (NW) 07:15:29 29.400- 29.500
DOVE 4 24 Aug 07:10:42 07:14:30 20° 90° (E) 07:18:08 437.250
AO-85 24 Aug 07:15:12 07:20:32 84° 122° (ESE) 07:25:34 145.980
STRAND 1 24 Aug 07:15:44 07:20:41 53° 71° (ENE) 07:25:40 437.568
LilacSat-2 24 Aug 07:23:23 07:27:08 56° 100° (E) 07:30:49 437.200
Cosmos 2491 24 Aug 07:40:40 07:48:38 40° 274° (W) 07:56:37 435.465 / 435.565
HO-68 24 Aug 07:45:13 07:49:04 15° 87° (E) 07:52:52 435.675
Cosmos 2504 24 Aug 07:54:32 08:02:29 45° 89° (E) 08:09:58 435.465 / 435.565
HORYU 2 24 Aug 08:06:14 08:07:47 12° 301° (WNW) 08:09:20 437.375
Cubesat XI-IV 24 Aug 08:13:15 08:18:29 58° 289° (WNW) 08:23:41 437.490
GOMX 1 24 Aug 08:20:04 08:25:19 47° 290° (WNW) 08:30:23 467.674
CINEMA 3 24 Aug 08:21:15 08:25:08 26° 93° (E) 08:28:51 145.822/145.860
BRITE-PL 24 Aug 08:23:31 08:28:02 25° 296° (WNW) 08:32:33 437.365/2234.400
PHONESAT 2.4 24 Aug 08:26:22 08:28:46 22° 199° (SSW) 08:31:10 2401.200-2431.200
CUTE-I 24 Aug 08:26:37 08:31:39 45° 291° (WNW) 08:36:40 437.470
SEEDS 24 Aug 08:26:38 08:29:07 15° 91° (E) 08:31:36 437.485
SO-50 24 Aug 08:28:09 08:31:34 20° 38° (NE) 08:34:54 436.795
RS-15 24 Aug 08:31:27 08:41:52 30° 16° (NNE) 08:52:21 29.354- 29.394
NOAA 18 24 Aug 08:32:03 08:37:18 47° 292° (WNW) 08:42:31 137.9125
CANX-2 24 Aug 08:38:42 08:42:33 33° 97° (E) 08:46:23 2200.000
NOAA 15 24 Aug 08:41:48 08:46:13 27° 296° (WNW) 08:50:38 137.62
CUTE 1.7 + AOD 2 24 Aug 08:45:37 08:49:29 34° 97° (E) 08:53:21 437.475
DOVE 4 24 Aug 08:47:28 08:52:30 51° 289° (WNW) 08:57:16 437.250
STRAND 1 24 Aug 08:56:30 09:00:11 20° 268° (W) 09:03:53 437.568
AO-85 24 Aug 08:57:47 09:01:34 20° 321° (NW) 09:05:12 145.980
YUBILEINY 24 Aug 08:58:15 09:06:09 35° 291° (WNW) 09:14:06 435.215
LilacSat-2 24 Aug 08:59:29 09:00:57 12° 297° (WNW) 09:02:26 437.200
PRISM 24 Aug 09:05:47 09:09:51 81° 76° (ENE) 09:13:59 437.425
AIST 1 24 Aug 09:06:17 09:07:02 10° 82° (E) 09:07:46
CUBEBUG 2 24 Aug 09:06:50 09:10:07 21° 93° (E) 09:13:20 437.445
AAUSAT CUBESAT 2 24 Aug 09:08:51 09:12:15 24° 94° (E) 09:15:37 437.432
COMPASS 1 24 Aug 09:12:32 09:16:19 33° 96° (E) 09:20:06 437.405
UWE-3 24 Aug 09:13:29 09:16:12 17° 91° (E) 09:18:54 435.000/436.395/437.385
Oscar 11 24 Aug 09:17:04 09:18:45 12° 89° (E) 09:20:25 145.826/435.025
FUNcube-1 24 Aug 09:19:26 09:20:33 11° 88° (E) 09:21:41 145.935
ANTELSAT 24 Aug 09:20:31 09:22:55 14° 61° (ENE) 09:25:19 437.575/2403.000
HO-68 24 Aug 09:30:35 09:37:48 83° 105° (ESE) 09:44:58 435.675
ZACube-1 24 Aug 09:37:00 09:40:00 19° 92° (E) 09:42:59 437.345
Cosmos 2504 24 Aug 09:47:59 09:55:54 41° 287° (WNW) 10:03:22 435.465 / 435.565
DELFI C3 24 Aug 09:49:27 09:49:41 10° 89° (E) 09:49:55 145.870
TIGRISAT 24 Aug 09:50:59 09:54:48 26° 67° (ENE) 09:58:34 435.000
CINEMA 3 24 Aug 09:58:09 10:02:18 32° 292° (WNW) 10:06:16 145.822/145.860
SEEDS 24 Aug 10:01:02 10:05:05 48° 287° (WNW) 10:09:08 437.485
SO-50 24 Aug 10:07:57 10:12:33 72° 238° (WSW) 10:17:01 436.795
CUSAT 1 24 Aug 10:09:30 10:14:15 24° 70° (ENE) 10:19:46 437.405
BEESAT 3 24 Aug 10:11:02 10:12:10 11° 108° (ESE) 10:13:17 437.485
CANX-2 24 Aug 10:14:53 10:18:14 23° 293° (WNW) 10:21:34 2200.000
UNISAT 6 24 Aug 10:17:28 10:21:57 50° 72° (ENE) 10:26:21 437.425
ISS 24 Aug 10:20:56 10:23:40 25° 137° (SE) 10:26:24 145.825
CUTE 1.7 + AOD 2 24 Aug 10:21:51 10:25:09 22° 293° (WNW) 10:28:26 437.475
DANDE 24 Aug 10:30:45 10:32:06 11° 68° (ENE) 10:33:30 436.750
AIST 1 24 Aug 10:39:38 10:43:56 72° 279° (W) 10:48:20
CUBEBUG 2 24 Aug 10:42:57 10:46:52 35° 291° (WNW) 10:50:40 437.445
AAUSAT CUBESAT 2 24 Aug 10:44:05 10:47:43 30° 291° (WNW) 10:51:23 437.432
QB50P2 24 Aug 10:44:46 10:47:25 16° 63° (ENE) 10:50:04 145.880/145.840
RS-15 24 Aug 10:45:15 10:57:32 63° 47° (NE) 11:09:39 29.354- 29.394
POLYITAN 1 24 Aug 10:47:16 10:49:57 16° 63° (ENE) 10:52:39 437.675
DUCHIFAT 1 24 Aug 10:48:14 10:50:36 15° 62° (ENE) 10:52:58 145.980
COMPASS 1 24 Aug 10:48:26 10:51:42 23° 293° (WNW) 10:54:58 437.405
UWE-3 24 Aug 10:48:54 10:52:56 43° 289° (WNW) 10:56:52 435.000/436.395/437.385
Oscar 11 24 Aug 10:51:02 10:55:20 65° 285° (WNW) 10:59:35 145.826/435.025
FUNcube-1 24 Aug 10:53:08 10:57:17 65° 286° (WNW) 11:01:22 145.935
ANTELSAT 24 Aug 10:54:28 10:59:06 70° 258° (WSW) 11:03:40 437.575/2403.000
HUMSAT D 24 Aug 10:57:44 11:01:21 30° 96° (E) 11:04:56 437.325/437.525
NANOSAT C BR1 24 Aug 10:59:10 11:02:17 20° 65° (ENE) 11:05:24 145.865
ZACube-1 24 Aug 11:12:35 11:16:28 37° 290° (WNW) 11:20:17 437.345
GONETS M04 24 Aug 11:19:06 11:24:14 17° 75° (ENE) 11:29:21
Cosmos 2499 24 Aug 11:19:15 11:19:52 10° 74° (ENE) 11:20:28 435.465 / 435.565
HO-68 24 Aug 11:19:30 11:24:44 22° 305° (NW) 11:29:56 435.675
BEESAT 2 24 Aug 11:19:38 11:23:08 31° 116° (ESE) 11:26:41 435.950
DELFI C3 24 Aug 11:20:59 11:24:58 67° 285° (WNW) 11:28:56 145.870
TIGRISAT 24 Aug 11:27:06 11:31:20 35° 263° (W) 11:35:32 435.000
JAS-2 24 Aug 11:37:09 11:41:29 27° 63° (ENE) 11:46:00 435.910
QB50P1 24 Aug 11:39:34 11:43:45 55° 73° (ENE) 11:47:56 145.935-145.965
AUBIESAT-1 24 Aug 11:44:15 11:47:18 20° 97° (E) 11:50:11 437.475
BEESAT 3 24 Aug 11:45:21 11:49:15 71° 306° (NW) 11:53:12 437.485
M-CUBED/EXP-1 PRIME 24 Aug 11:46:06 11:49:41 26° 99° (E) 11:53:00 437.505
POPSAT HIP 1 24 Aug 11:49:07 11:53:21 69° 75° (ENE) 11:57:39 437.405
CUSAT 1 24 Aug 11:50:34 11:56:26 65° 263° (W) 12:03:44 437.405
UNISAT 6 24 Aug 11:55:46 11:58:54 18° 268° (W) 12:02:02 437.425
ISS 24 Aug 11:56:46 11:59:56 48° 334° (NNW) 12:03:07 145.825
BUGSAT 1 24 Aug 11:58:02 12:01:52 34° 69° (ENE) 12:05:43 437.445
CUBEBUG 1 24 Aug 12:00:01 12:02:54 17° 91° (E) 12:05:44 437.445
DANDE 24 Aug 12:10:14 12:15:05 81° 80° (E) 12:21:36 436.750
ESTCUBE 1 24 Aug 12:10:41 12:14:47 32° 97° (E) 12:18:51 437.505/2401.250
QB50P2 24 Aug 12:18:37 12:22:49 52° 260° (W) 12:27:01 145.880/145.840
DX 1 24 Aug 12:18:40 12:21:01 14° 91° (E) 12:23:22 434.975-435.025
POLYITAN 1 24 Aug 12:21:10 12:25:21 51° 260° (W) 12:29:33 437.675
DUCHIFAT 1 24 Aug 12:21:37 12:25:49 58° 259° (W) 12:30:03 145.980
HUMSAT D 24 Aug 12:33:35 12:36:51 24° 293° (WNW) 12:40:06 437.325/437.525
NANOSAT C BR1 24 Aug 12:33:44 12:37:45 40° 262° (W) 12:41:48 145.865
AISAT 24 Aug 12:35:14 12:39:17 33° 97° (E) 12:43:18 437.250
SPROUT 24 Aug 12:35:58 12:38:41 16° 91° (E) 12:41:23 437.525
BEESAT 2 24 Aug 12:57:32 13:00:58 27° 314° (NW) 13:04:26 435.950
RS-15 24 Aug 12:58:19 13:09:43 46° 251° (WSW) 13:20:55 29.354- 29.394
AIST 2 24 Aug 12:59:23 13:01:54 16° 111° (ESE) 13:04:27 435.215
Cosmos 2499 24 Aug 13:03:21 13:11:28 61° 93° (E) 13:19:00 435.465 / 435.565
UKube-1 24 Aug 13:05:20 13:09:19 34° 98° (E) 13:13:14 .
GONETS M04 24 Aug 13:10:51 13:19:36 83° 95° (E) 13:28:27
Oscar 19 24 Aug 13:11:33 13:16:21 41° 68° (ENE) 13:21:12 437.125/150
50 SAT 24 Aug 13:16:33 13:20:12 82° 284° (WNW) 13:23:51 437.505
QB50P1 24 Aug 13:17:31 13:19:51 14° 269° (W) 13:22:11 145.935-145.965
AUBIESAT-1 24 Aug 13:18:01 13:21:56 37° 296° (WNW) 13:25:34 437.475
M-CUBED/EXP-1 PRIME 24 Aug 13:20:24 13:24:12 30° 298° (WNW) 13:27:44 437.505
JAS-2 24 Aug 13:21:37 13:26:26 39° 263° (W) 13:31:28 435.910
VELOX 1 24 Aug 13:22:44 13:27:14 83° 284° (WNW) 13:31:42 145.980
PCSat 24 Aug 13:24:47 13:30:11 74° 118° (ESE) 13:35:37 145.827
BEESAT 3 24 Aug 13:26:15 13:27:40 12° 326° (NW) 13:29:05 437.485
POPSAT HIP 1 24 Aug 13:28:12 13:29:36 11° 271° (W) 13:31:01 437.405
BUGSAT 1 24 Aug 13:33:55 13:37:17 23° 266° (W) 13:40:41 437.445
ISS 24 Aug 13:34:18 13:36:54 21° 354° (N) 13:39:29 145.825
CUBEBUG 1 24 Aug 13:35:09 13:39:28 50° 288° (WNW) 13:43:43 437.445
CUSAT 1 24 Aug 13:36:50 13:37:47 10° 277° (W) 13:38:46 437.405
ESTCUBE 1 24 Aug 13:47:40 13:51:28 27° 293° (WNW) 13:55:16 437.505/2401.250
Gurwin Techsat 1B 24 Aug 13:51:08 13:56:10 45° 69° (ENE) 14:01:12 435.225
DX 1 24 Aug 13:53:15 13:57:35 58° 288° (WNW) 14:01:52 434.975-435.025
DANDE 24 Aug 13:55:02 13:57:38 14° 271° (W) 14:00:34 436.750
AO-85 24 Aug 14:06:49 14:09:39 16° 35° (NE) 14:12:20 145.980
SPROUT 24 Aug 14:10:45 14:14:53 47° 288° (WNW) 14:18:59 437.525
AISAT 24 Aug 14:11:55 14:15:38 26° 294° (WNW) 14:19:19 437.250
ITAMSAT 1 24 Aug 14:18:05 14:22:18 26° 64° (ENE) 14:26:33 435.822/435.867
AO-7 24 Aug 14:18:11 14:24:52 28° 53° (NE) 14:31:32 29.400- 29.500
O/OREOS (USA 219) 24 Aug 14:18:40 14:21:41 18° 100° (E) 14:24:44 437.305
BEESAT 24 Aug 14:23:41 14:23:57 10° 88° (E) 14:24:14 436.000
AIST 2 24 Aug 14:35:56 14:39:58 54° 308° (NW) 14:44:02 435.215
UKube-1 24 Aug 14:41:41 14:45:11 24° 294° (WNW) 14:48:39 .
TISAT 1 24 Aug 14:43:32 14:47:47 87° 103° (ESE) 14:51:58 437.305
Oscar 19 24 Aug 14:51:31 14:55:48 26° 266° (W) 15:00:08 437.125/150
Cosmos 2499 24 Aug 14:58:07 15:05:00 29° 291° (WNW) 15:11:32 435.465 / 435.565
ITUPSAT 1 24 Aug 15:05:18 15:09:23 27° 95° (E) 15:13:26 437.325
PCSat 24 Aug 15:10:01 15:14:10 22° 318° (NW) 15:18:20 145.827
GONETS M04 24 Aug 15:10:56 15:17:33 23° 298° (WNW) 15:24:16
ISS 24 Aug 15:11:14 15:14:03 26° 15° (NNE) 15:16:51 145.825
Gurwin Techsat 1B 24 Aug 15:31:57 15:36:17 25° 266° (W) 15:40:39 435.225
SWISSCUBE 24 Aug 15:40:02 15:44:47 69° 102° (ESE) 15:49:32 437.505
AO-85 24 Aug 15:46:24 15:50:44 80° 237° (WSW) 15:54:42 145.980
HORYU 2 24 Aug 15:54:01 15:55:03 11° 58° (ENE) 15:56:05 437.375
O/OREOS (USA 219) 24 Aug 15:56:22 16:00:41 47° 298° (WNW) 16:05:05 437.305
ITAMSAT 1 24 Aug 15:56:36 16:01:32 43° 261° (W) 16:06:30 435.822/435.867
BEESAT 24 Aug 15:57:36 16:02:24 89° 285° (WNW) 16:07:09 436.000
AO-7 24 Aug 16:08:28 16:16:51 78° 253° (WSW) 16:25:15 29.400- 29.500
AIST 2 24 Aug 16:18:40 16:19:23 10° 329° (NNW) 16:20:06 435.215
TISAT 1 24 Aug 16:22:21 16:22:44 10° 301° (WNW) 16:23:06 437.305
ITUPSAT 1 24 Aug 16:42:57 16:47:14 34° 292° (WNW) 16:51:31 437.325
MOZHAYETS 4 24 Aug 16:43:52 16:48:13 43° 98° (E) 16:52:35
NOAA 15 24 Aug 16:47:22 16:49:18 12° 55° (NE) 16:51:15 137.62
ISS 24 Aug 16:47:29 16:50:45 82° 213° (SSW) 16:54:00 145.825
KKS-1 24 Aug 17:04:49 17:09:14 54° 101° (E) 17:13:35 437.445
YUBILEINY 24 Aug 17:09:10 17:16:39 30° 66° (ENE) 17:24:01 435.215
SWISSCUBE 24 Aug 17:19:17 17:22:02 15° 300° (WNW) 17:24:47 437.505
HORYU 2 24 Aug 17:26:24 17:30:53 89° 86° (E) 17:35:22 437.375
BEESAT 24 Aug 17:37:44 17:39:26 12° 302° (WNW) 17:41:08 436.000
Cosmos 2504 24 Aug 17:47:01 17:50:58 15° 58° (ENE) 17:54:50 435.465 / 435.565
STARS 24 Aug 17:50:46 17:55:12 83° 101° (E) 17:59:35 437.465
GOMX 1 24 Aug 17:51:37 17:55:56 29° 66° (ENE) 18:00:29 467.674
CUBESAT XI-V 24 Aug 17:54:05 17:58:16 31° 96° (E) 18:02:26 437.345
BRITE-PL 24 Aug 17:56:27 18:01:07 64° 73° (ENE) 18:06:15 437.365/2234.400
Cubesat XI-IV 24 Aug 17:57:13 18:02:05 37° 67° (ENE) 18:06:57 437.490
AO-7 24 Aug 18:06:15 18:10:54 16° 272° (W) 18:15:34 29.400- 29.500
LilacSat-2 24 Aug 18:06:36 18:10:05 33° 71° (ENE) 18:13:34 437.200
CUTE-I 24 Aug 18:09:59 18:15:05 47° 69° (ENE) 18:20:11 437.470
HO-68 24 Aug 18:16:42 18:20:41 16° 50° (NE) 18:24:39 435.675
DOVE 4 24 Aug 18:16:49 18:20:58 25° 64° (ENE) 18:25:12 437.250
NOAA 18 24 Aug 18:19:15 18:24:38 54° 70° (ENE) 18:30:02 137.9125
MOZHAYETS 4 24 Aug 18:21:42 18:25:07 21° 295° (WNW) 18:28:32
NOAA 15 24 Aug 18:22:58 18:28:12 78° 73° (ENE) 18:33:29 137.62
BEESAT 3 24 Aug 18:24:42 18:27:02 15° 38° (NE) 18:29:21 437.485
ISS 24 Aug 18:25:48 18:26:40 11° 229° (SW) 18:27:32 145.825
KKS-1 24 Aug 18:42:30 18:45:22 17° 298° (WNW) 18:48:13 437.445
Cosmos 2491 24 Aug 18:46:15 18:54:34 53° 89° (E) 19:02:57 435.465 / 435.565
YUBILEINY 24 Aug 19:05:27 19:14:07 66° 268° (W) 19:22:42 435.215
SEEDS 24 Aug 19:20:28 19:22:32 14° 62° (ENE) 19:24:35 437.485
CINEMA 3 24 Aug 19:23:22 19:27:45 31° 68° (ENE) 19:32:08 145.822/145.860
STRAND 1 24 Aug 19:26:02 19:29:07 16° 90° (E) 19:32:11 437.568
GOMX 1 24 Aug 19:29:13 19:33:50 38° 265° (W) 19:38:46 467.674
STARS 24 Aug 19:29:25 19:30:53 11° 301° (WNW) 19:32:20 437.465
CUBESAT XI-V 24 Aug 19:31:31 19:35:34 30° 293° (WNW) 19:39:38 437.345
CANX-2 24 Aug 19:32:52 19:36:28 28° 68° (ENE) 19:40:05 2200.000
BEESAT 2 24 Aug 19:36:00 19:39:38 32° 47° (NE) 19:43:16 435.950
BRITE-PL 24 Aug 19:37:23 19:40:12 15° 273° (W) 19:43:08 437.365/2234.400
Cubesat XI-IV 24 Aug 19:37:28 19:42:11 31° 264° (W) 19:46:55 437.490
Cosmos 2504 24 Aug 19:38:21 19:45:43 81° 81° (E) 19:52:53 435.465 / 435.565
CUTE 1.7 + AOD 2 24 Aug 19:39:39 19:43:18 29° 69° (ENE) 19:46:56 437.475
LilacSat-2 24 Aug 19:41:45 19:44:29 18° 267° (W) 19:47:13 437.200
CUTE-I 24 Aug 19:51:06 19:55:21 24° 266° (W) 19:59:37 437.470
DOVE 4 24 Aug 19:53:25 19:58:19 46° 263° (W) 20:03:25 437.250
HO-68 24 Aug 20:00:01 20:07:10 71° 70° (ENE) 20:14:20 435.675
AAUSAT CUBESAT 2 24 Aug 20:00:48 20:03:47 20° 66° (ENE) 20:06:46 437.432
BEESAT 3 24 Aug 20:01:14 20:05:13 79° 237° (WSW) 20:09:10 437.485
NOAA 18 24 Aug 20:01:21 20:05:36 22° 267° (W) 20:09:52 137.9125
COMPASS 1 24 Aug 20:04:43 20:08:11 27° 68° (ENE) 20:11:40 437.405
CUBEBUG 2 24 Aug 20:05:48 20:09:35 24° 66° (ENE) 20:13:18 437.445
NOAA 15 24 Aug 20:05:57 20:08:35 14° 271° (W) 20:11:14 137.62
UWE-3 24 Aug 20:11:35 20:14:47 19° 65° (ENE) 20:17:57 435.000/436.395/437.385
Oscar 11 24 Aug 20:13:42 20:15:27 12° 61° (ENE) 20:17:11 145.826/435.025
FUNcube-1 24 Aug 20:16:07 20:18:03 13° 61° (ENE) 20:19:58 145.935
PCSat 24 Aug 20:28:59 20:32:29 17° 37° (NE) 20:35:57 145.827
ZACube-1 24 Aug 20:34:02 20:37:19 20° 65° (ENE) 20:40:34 437.345
Cosmos 2491 24 Aug 20:43:49 20:51:42 37° 291° (WNW) 20:59:40 435.465 / 435.565
AIST 1 24 Aug 20:45:22 20:49:20 31° 74° (ENE) 20:53:15
SEEDS 24 Aug 20:53:38 20:57:44 60° 260° (W) 21:01:52 437.485
CINEMA 3 24 Aug 21:00:15 21:04:47 34° 265° (W) 21:09:20 145.822/145.860
STRAND 1 24 Aug 21:03:42 21:08:46 66° 287° (WNW) 21:13:48 437.568
YUBILEINY 24 Aug 21:06:01 21:09:03 12° 289° (WNW) 21:12:04 435.215
CANX-2 24 Aug 21:08:45 21:12:17 26° 265° (W) 21:15:50 2200.000
BEESAT 2 24 Aug 21:13:59 21:17:22 27° 245° (WSW) 21:20:45 435.950
CUTE 1.7 + AOD 2 24 Aug 21:15:37 21:19:07 25° 265° (W) 21:22:38 437.475
AIST 2 24 Aug 21:18:04 21:21:15 21° 42° (NE) 21:24:26 435.215
Cosmos 2504 24 Aug 21:33:34 21:38:04 18° 282° (WNW) 21:42:30 435.465 / 435.565
AAUSAT CUBESAT 2 24 Aug 21:35:12 21:39:01 37° 262° (W) 21:42:52 437.432
COMPASS 1 24 Aug 21:40:11 21:43:41 27° 265° (W) 21:47:12 437.405
CUBEBUG 2 24 Aug 21:41:35 21:46:00 38° 263° (W) 21:50:20 437.445
UWE-3 24 Aug 21:46:27 21:50:54 49° 261° (W) 21:55:19 435.000/436.395/437.385
Oscar 11 24 Aug 21:46:42 21:51:00 73° 259° (W) 21:55:18 145.826/435.025
FUNcube-1 24 Aug 21:49:15 21:53:44 74° 258° (WSW) 21:58:08 145.935
HO-68 24 Aug 21:49:57 21:55:28 23° 268° (W) 22:01:02 435.675
HUMSAT D 24 Aug 21:50:22 21:53:50 26° 68° (ENE) 21:57:17 437.325/437.525
